This is the latest recevied weather packets stored in our database for station/object KC1TLF-15. If no packets are shown the sender has not sent any weather packets the latest 10 day(s).
| Time | Temp. | Humidity | Pressure | Rain* | Wind** | Luminosity | Snow |
|---|---|---|---|---|---|---|---|
| 1777379470 | 10.56° C | 66% | 1031.4 hPa | 0 mm | 0 m/s | 348 W/m² | - |
| 1777378869 | 10.56° C | 70% | 1031.8 hPa | 0 mm | 0.45 m/s, 330° | 316 W/m² | - |
| 1777378270 | 10° C | 72% | 1031.4 hPa | 0 mm | 0 m/s | 288 W/m² | - |
| 1777377670 | 9.44° C | 73% | 1031.3 hPa | 0 mm | 0 m/s | 257 W/m² | - |
| 1777377069 | 8.33° C | 79% | 1031.4 hPa | 0 mm | 0 m/s | - | - |
| 1777376471 | 7.78° C | 83% | 1031.5 hPa | 0 mm | 0 m/s | - | - |
| 1777375869 | 7.22° C | 83% | 1031.6 hPa | 0 mm | 0.89 m/s, 26° | - | - |
| 1777375271 | 7.22° C | 84% | 1031.8 hPa | 0 mm | 0.45 m/s, 165° | - | - |
| 1777374668 | 7.22° C | 83% | 1031.7 hPa | 0 mm | 0 m/s | - | - |
| 1777374070 | 7.22° C | 83% | 1031.6 hPa | 0 mm | 0 m/s | - | - |
| 1777373470 | 5° C | 90% | 1031.3 hPa | 0 mm | 0 m/s | - | - |
| 1777372869 | 5° C | 89% | 1031.4 hPa | 0 mm | 0 m/s | - | - |
| 1777372270 | 3.89° C | 95% | 1031.5 hPa | 0 mm | 0 m/s | - | - |
| 1777371670 | 3.33° C | 95% | 1031.2 hPa | 0 mm | 0 m/s | - | - |
| 1777371070 | 3.89° C | 95% | 1031.2 hPa | 0 mm | 0 m/s | - | - |
| 1777370471 | 3.89° C | 95% | 1031.1 hPa | 0 mm | 0 m/s | - | - |
| 1777369870 | 3.89° C | 94% | 1031.3 hPa | 0 mm | 0 m/s | - | - |
| 1777369269 | 3.89° C | 94% | 1031.4 hPa | 0 mm | 0 m/s | - | - |
| 1777368670 | 3.89° C | 94% | 1031.2 hPa | 0 mm | 0 m/s | - | - |
| 1777368070 | 3.89° C | 94% | 1031.3 hPa | 0 mm | 0 m/s | - | - |
| 1777367471 | 3.89° C | 93% | 1031.2 hPa | 0 mm | 0 m/s | 0 W/m² | - |
| 1777366871 | 3.89° C | 94% | 1031.2 hPa | 0 mm | 0 m/s | 0 W/m² | - |
| 1777366271 | 3.89° C | 93% | 1031 hPa | 0 mm | 0 m/s | 0 W/m² | - |
| 1777365669 | 3.89° C | 92% | 1030.9 hPa | 0 mm | 0 m/s | 0 W/m² | - |
| 1777365070 | 3.89° C | 91% | 1031 hPa | 0 mm | 0 m/s | 0 W/m² | - |
* Rain latest hour (hover to see other rain measurements)
** Current wind speed in m/s (hover to see current wind gust speed)